Weather in Verblyuzhka

Russia / Orenburg Oblast     51°23′13″N   56°48′09″E
temp.,
°C
wind,
m/s
gust,
m/s
humid.,
%
clouds,
%
prec.,
mm/h
press.,
hPa
HPBL,
m
27 february, sat
sat2723:00−18ese489591 0.2 1022186
02:00−18ese5119596 0.1 1020292
05:00−17se6119598 0.1 1017337
08:00−15se71395100 0.7 1012431
11:00−9sse61395100 4.9 1009653
14:00−5s71295100 1.7 1005620
17:00−2s51097100 3.2 1004400
20:000wsw4997100 0.3 1003494
28 february, sun
sun2823:000sw4898100 0.4 1003455
02:000ssw5999100 0.5 1001478
05:00−1wsw4895100 0.9 1001533
08:00−1sw4998100 0.9 1000502
11:00−1sw61097100 2.2 1001656
14:00−3wsw6992100 1.1 1002530
17:00−8wsw6994100 1.4 1004428
20:00−10wsw4996100 0.1 1008212
1 march, mon
mon123:00−12wsw489699 0.3 1011218
02:00−14sw259799 0.1 1012156
05:00−15sw229799 0.2 101456
08:00−16sw229798 0.1 101625
11:00−15wsw239499 0.3 1017254
14:00−13wsw3491100 0.1 1018399
17:00−13wsw4593100 0.2 1019417
20:00−15wsw369793 0.1 1020135
2 march, tue
tue223:00−17w249995 0.2 102188
02:00−19wsw2299100 0.1 102122
05:00−20wsw22100100 0.1 102126
08:00−23wsw22100100 0.1 102221
11:00−20wsw2397100 0.1 1022246
14:00−18wsw3493100 0.0 1021335
17:00−17sw3595100 0.1 1020326
20:00−21s3310091 0.0 101925
3 march, wed
wed323:00−18sse369896 0.1 1018226
02:00−15se3897100 0.5 1014276
05:00−9s41395100 1.8 1011531
08:00−5ssw81495100 1.2 1008653
11:00−3ssw81495100 2.4 1007801
14:00−2ssw81395100 1.3 1005907
17:00−1ssw71297100 2.4 1004869
20:00−2sw61197100 1.1 1003566